Fort Riley, KS

11:27 PM CST on January 22, 2017 (GMT -0600)
Marshall Army Air Field

Weather History for KFRI - May, 2013

Change the Weather History Date:

Saturday, May 11, 2013

  Actual Average (KMHK) Record (KMHK)
Temperature  
Mean Temperature 56 °F -  
Max Temperature 66 °F 73 °F 97 °F (2000)
Min Temperature 46 °F 48 °F 39 °F (2008)
Degree Days  
Heating Degree Days 9    
Growing Degree Days 6 (Base 50)    
Moisture  
Dew Point 36 °F    
Average Humidity 49    
Maximum Humidity 100    
Minimum Humidity 26    
Precipitation  
Precipitation 0.00 in - - ()
Sea Level Pressure  
Sea Level Pressure 30.22 in    
Wind  
Wind Speed 9 mph (North)    
Max Wind Speed 23 mph    
Max Gust Speed 34 mph    
Visibility 10 miles    
Events      
Averages and records for this station are not official NWS values.
T = Trace of Precipitation, MM = Missing Value Source: NWS Daily Summary

Daily Weather History Graph

Daily Weather History Graph

Search for Another Location

Airport or City:

Trip Planner

Search our weather history database for the weather conditions in past years. The results will help you decide how hot, cold, wet, or windy it might be!

Date:

Astronomy

May. 11, 2013 Rise Set
Actual Time 6:17 AM CDT 8:29 PM CDT
Civil Twilight 5:47 AM CDT 8:59 PM CDT
Nautical Twilight 5:11 AM CDT 9:36 PM CDT
Astronomical Twilight 4:31 AM CDT 10:16 PM CDT
Moon 7:26 AM CDT (5/11) 10:10 PM CDT (5/11)
Length of Visible Light 15h 11m
Length of Day
14h 12m
Waxing Crescent, 3% of the Moon is Illuminated
May 11
Waxing Crescent
May 17
First Quarter
May 24
Full
May 31
Last Quarter
Jun 8
New

Hourly Weather History & Observations

Time (CDT) Temp. Dew Point Humidity Pressure Visibility Wind Dir Wind Speed Gust Speed Precip Events Conditions
12:58 AM 50.5 °F 50.0 °F 98% 30.09 in 10.0 mi SW 2.3 mph - N/A   Clear
1:58 AM 50.0 °F 50.0 °F 100% 30.09 in 10.0 mi Calm Calm - N/A   Clear
2:58 AM 49.6 °F 49.5 °F 99% 30.09 in 10.0 mi SSW 2.3 mph - N/A   Clear
3:58 AM 48.2 °F 48.2 °F 100% 30.08 in 10.0 mi Calm Calm - N/A   Clear
4:58 AM 47.7 °F 47.7 °F 100% 30.08 in 10.0 mi Calm Calm - N/A   Clear
5:58 AM 47.3 °F 47.3 °F 100% 30.09 in 10.0 mi SSW 2.3 mph - N/A   Clear
6:58 AM 52.5 °F 49.6 °F 90% 30.14 in 10.0 mi North 12.7 mph 19.6 mph N/A   Clear
7:58 AM 55.6 °F 41.5 °F 59% 30.18 in 10.0 mi North 16.1 mph 23.0 mph N/A   Partly Cloudy
8:58 AM 58.3 °F 36.9 °F 45% 30.21 in 10.0 mi NNE 21.9 mph 27.6 mph N/A   Clear
9:58 AM 59.9 °F 34.0 °F 38% 30.23 in 10.0 mi North 23.0 mph 34.5 mph N/A   Clear
10:58 AM 61.3 °F 35.1 °F 37% 30.26 in 10.0 mi North 21.9 mph 27.6 mph N/A   Clear
11:29 AM 60.8 °F 35.6 °F 39% 30.27 in 10.0 mi NNE 17.3 mph 31.1 mph N/A   Clear
11:58 AM 62.1 °F 36.3 °F 38% 30.28 in 10.0 mi North 18.4 mph 24.2 mph N/A   Clear
12:58 PM 64.0 °F 36.0 °F 35% 30.27 in 10.0 mi NNW 12.7 mph 20.7 mph N/A   Clear
1:58 PM 64.6 °F 34.7 °F 33% 30.26 in 10.0 mi North 15.0 mph 20.7 mph N/A   Clear
2:10 PM 64.4 °F 33.8 °F 32% 30.26 in 10.0 mi NW 15.0 mph 24.2 mph N/A   Clear
2:24 PM 64.4 °F 33.8 °F 32% 30.26 in 10.0 mi North 18.4 mph 25.3 mph N/A   Clear
2:58 PM 65.3 °F 32.4 °F 29% 30.25 in 10.0 mi North 18.4 mph 25.3 mph N/A   Clear
3:29 PM 66.2 °F 32.0 °F 28% 30.26 in 10.0 mi North 15.0 mph 20.7 mph N/A   Clear
3:54 PM 66.2 °F 32.0 °F 28% 30.25 in 10.0 mi NW 15.0 mph 25.3 mph N/A   Clear
3:58 PM 65.7 °F 31.3 °F 28% 30.25 in 10.0 mi NNW 15.0 mph 23.0 mph N/A   Clear
3:59 PM 66.2 °F 32.0 °F 28% 30.25 in 10.0 mi North 18.4 mph 23.0 mph N/A   Clear
4:00 PM 66.2 °F 30.2 °F 26% 30.25 in 10.0 mi North 17.3 mph 23.0 mph N/A   Clear
4:58 PM 65.7 °F 32.0 °F 29% 30.24 in 10.0 mi North 13.8 mph 18.4 mph N/A   Clear
5:17 PM 66.2 °F 30.2 °F 26% 30.24 in 10.0 mi NW 16.1 mph 25.3 mph N/A   Clear
5:58 PM 65.5 °F 30.4 °F 27% 30.24 in 10.0 mi North 9.2 mph 19.6 mph N/A   Clear
6:58 PM 63.9 °F 29.7 °F 28% 30.22 in 10.0 mi North 10.4 mph - N/A   Clear
7:58 PM 61.2 °F 26.8 °F 27% 30.23 in 10.0 mi NNE 8.1 mph 19.6 mph N/A   Clear
8:58 PM 56.3 °F 26.4 °F 32% 30.25 in 10.0 mi North 4.6 mph - N/A   Clear
9:58 PM 53.2 °F 28.9 °F 39% 30.27 in 10.0 mi North 2.3 mph - N/A   Clear
10:58 PM 46.8 °F 36.1 °F 67% 30.28 in 10.0 mi NNE 3.5 mph - N/A   Clear
11:58 PM 46.4 °F 35.1 °F 65% 30.28 in 10.0 mi Calm Calm - N/A   Clear